CommID,deviceName,DataDateTime,GPSLatitude,GPSLongitude,Submerged,gpsQuality,BatteryVoltage,SST,IridiumLatitude,IridiumLongitude,IridiumRadiusKm,orgName,bPressTend,windDir,windSpeed,bPress,SurfaceSalinity,temperature7m,salinity7m,temperature15m,salinity15m
300234011884340,SFOS-MS-0014,10/15/2012 7:00:38 AM,70.804050,-158.458147,True,3,10.5,-2.60,71.359850,-169.815600,405,School of Fisheries and Ocean Sciences,,,,,,,,,
300234011884340,SFOS-MS-0014,10/15/2012 6:30:09 AM,70.804041,-158.458208,True,3,10.5,45.05,70.509350,-158.252960,7,School of Fisheries and Ocean Sciences,,,,,,,,,
300234011884340,SFOS-MS-0014,10/15/2012 6:00:08 AM,70.804041,-158.458186,True,3,10.5,44.70,70.475920,-158.216230,5,School of Fisheries and Ocean Sciences,,,,,,,,,
300234011884340,SFOS-MS-0014,10/15/2012 5:30:08 AM,70.804044,-158.458130,True,3,10.5,44.90,70.475920,-158.216230,1,School of Fisheries and Ocean Sciences,,,,,,,,,
300234011884340,SFOS-MS-0014,10/15/2012 5:00:07 AM,70.804028,-158.458139,True,3,10.5,44.50,70.502290,-158.252960,5,School of Fisheries and Ocean Sciences,,,,,,,,,
300234011884340,SFOS-MS-0014,10/15/2012 4:30:08 AM,70.804030,-158.458142,True,3,10.5,44.65,71.266200,-162.450760,188,School of Fisheries and Ocean Sciences,,,,,,,,,
300234011884340,SFOS-MS-0014,10/15/2012 4:00:37 AM,70.804036,-158.458147,True,3,10.5,44.75,70.475920,-158.216230,4,School of Fisheries and Ocean Sciences,,,,,,,,,
300234011884340,SFOS-MS-0014,10/15/2012 3:30:17 AM,70.804119,-158.458350,True,3,10.5,45.75,70.490840,-158.337880,2,School of Fisheries and Ocean Sciences,,,,,,,,,
300234011884340,SFOS-MS-0014,10/15/2012 3:30:17 AM,70.804119,-158.458350,True,3,10.5,45.75,70.490840,-158.337880,2,School of Fisheries and Ocean Sciences,,,,,,,,,
300234011884340,SFOS-MS-0014,10/15/2012 3:00:09 AM,70.804019,-158.458136,True,3,10.5,-4.65,70.490840,-158.337880,2,School of Fisheries and Ocean Sciences,,,,,,,,,
300234011884340,SFOS-MS-0014,10/15/2012 2:30:09 AM,70.804047,-158.458108,True,3,10.5,-3.80,70.468410,-158.155530,6,School of Fisheries and Ocean Sciences,,,,,,,,,
300234011884340,SFOS-MS-0014,10/15/2012 2:00:37 AM,70.804011,-158.458172,True,3,10.5,-3.05,70.464490,-158.300970,2,School of Fisheries and Ocean Sciences,,,,,,,,,
300234011884340,SFOS-MS-0014,10/15/2012 1:30:11 AM,70.803953,-158.458042,True,3,10.5,-2.55,70.475920,-158.216230,4,School of Fisheries and Ocean Sciences,,,,,,,,,
300234011884340,SFOS-MS-0014,10/15/2012 1:00:15 AM,70.804028,-158.458036,True,3,10.5,-2.40,70.471920,-158.361750,1,School of Fisheries and Ocean Sciences,,,,,,,,,
300234011884340,SFOS-MS-0014,10/15/2012 12:30:13 AM,70.803925,-158.458678,True,3,10.5,-2.30,71.197100,-166.532680,330,School of Fisheries and Ocean Sciences,,,,,,,,,
300234011884340,SFOS-MS-0014,10/15/2012 12:30:13 AM,70.803925,-158.458678,True,3,10.5,-2.30,71.187770,-166.401840,320,School of Fisheries and Ocean Sciences,,,,,,,,,
300234011884340,SFOS-MS-0014,10/15/2012 12:00:12 AM,70.804022,-158.458339,True,3,10.5,-2.20,70.427420,-156.412460,93,School of Fisheries and Ocean Sciences,,,,,,,,,
300234011884340,SFOS-MS-0014,10/14/2012 11:30:09 PM,70.804008,-158.458203,True,3,10.5,-2.15,70.475920,-158.216230,2,School of Fisheries and Ocean Sciences,,,,,,,,,
300234011884340,SFOS-MS-0014,10/14/2012 11:00:36 PM,70.803989,-158.458175,True,3,10.5,-2.10,70.475920,-158.216230,4,School of Fisheries and Ocean Sciences,,,,,,,,,
300234011884340,SFOS-MS-0014,10/14/2012 10:30:09 PM,70.804030,-158.458253,True,3,10.5,-2.20,70.475920,-158.216230,3,School of Fisheries and Ocean Sciences,,,,,,,,,
300234011884340,SFOS-MS-0014,10/14/2012 10:00:15 PM,70.804022,-158.458272,True,3,10.5,-2.20,70.475920,-158.216230,2,School of Fisheries and Ocean Sciences,,,,,,,,,
300234011884340,SFOS-MS-0014,10/14/2012 9:30:33 PM,70.804000,-158.458222,True,3,10.5,-2.30,70.374960,-162.128500,157,School of Fisheries and Ocean Sciences,,,,,,,,,
300234011884340,SFOS-MS-0014,10/14/2012 9:00:12 PM,70.803986,-158.458158,True,3,10.5,-2.40,70.475920,-158.216230,2,School of Fisheries and Ocean Sciences,,,,,,,,,
300234011884340,SFOS-MS-0014,10/14/2012 8:30:12 PM,70.804105,-158.458161,True,3,10.5,-2.55,70.490840,-158.337880,3,School of Fisheries and Ocean Sciences,,,,,,,,,
300234011884340,SFOS-MS-0014,10/14/2012 8:00:15 PM,70.804028,-158.458267,True,3,10.5,-2.60,70.475920,-158.216230,2,School of Fisheries and Ocean Sciences,,,,,,,,,
300234011884340,SFOS-MS-0014,10/14/2012 7:30:37 PM,70.804039,-158.458239,True,3,10.5,-2.60,70.464490,-158.300970,2,School of Fisheries and Ocean Sciences,,,,,,,,,
300234011884340,SFOS-MS-0014,10/14/2012 7:00:11 PM,70.803980,-158.458111,True,3,10.5,-2.80,70.566060,-156.225000,110,School of Fisheries and Ocean Sciences,,,,,,,,,
300234011884340,SFOS-MS-0014,10/14/2012 6:30:17 PM,70.804028,-158.458144,True,3,10.5,-3.05,70.483390,-158.277010,3,School of Fisheries and Ocean Sciences,,,,,,,,,
300234011884340,SFOS-MS-0014,10/14/2012 6:00:21 PM,70.804030,-158.458183,True,3,10.5,-2.95,70.483390,-158.277010,5,School of Fisheries and Ocean Sciences,,,,,,,,,
300234011884340,SFOS-MS-0014,10/14/2012 5:30:12 PM,70.804047,-158.458192,True,3,10.5,-3.05,70.464490,-158.300970,3,School of Fisheries and Ocean Sciences,,,,,,,,,
300234011884340,SFOS-MS-0014,10/14/2012 5:00:07 PM,70.804030,-158.458225,True,3,10.5,-3.10,70.464490,-158.300970,2,School of Fisheries and Ocean Sciences,,,,,,,,,
300234011884340,SFOS-MS-0014,10/14/2012 4:30:09 PM,70.804030,-158.458217,True,3,10.5,-2.90,71.287980,-150.606500,320,School of Fisheries and Ocean Sciences,,,,,,,,,
300234011884340,SFOS-MS-0014,10/14/2012 4:00:37 PM,70.804041,-158.458208,True,3,10.5,-2.45,70.502290,-158.252960,4,School of Fisheries and Ocean Sciences,,,,,,,,,
300234011884340,SFOS-MS-0014,10/14/2012 3:30:09 PM,70.804050,-158.458217,True,3,10.5,-1.95,70.464490,-158.300970,3,School of Fisheries and Ocean Sciences,,,,,,,,,
300234011884340,SFOS-MS-0014,10/14/2012 3:00:10 PM,70.804050,-158.458214,True,3,10.5,-1.70,70.457030,-158.240280,3,School of Fisheries and Ocean Sciences,,,,,,,,,
300234011884340,SFOS-MS-0014,10/14/2012 2:30:10 PM,70.804030,-158.458280,True,3,10.5,-1.70,70.464490,-158.300970,2,School of Fisheries and Ocean Sciences,,,,,,,,,
300234011884340,SFOS-MS-0014,10/14/2012 2:00:08 PM,70.804025,-158.458322,True,3,10.5,-1.75,70.475920,-158.216230,4,School of Fisheries and Ocean Sciences,,,,,,,,,
300234011884340,SFOS-MS-0014,10/14/2012 1:30:05 PM,70.804019,-158.458314,False,3,7.5,-0.05,70.457030,-158.240280,2,School of Fisheries and Ocean Sciences,,,,,,,,,
300234011884340,SFOS-MS-0014,10/14/2012 1:00:09 PM,70.804008,-158.458319,True,3,10.5,-1.70,70.475920,-158.216230,2,School of Fisheries and Ocean Sciences,,,,,,,,,
300234011884340,SFOS-MS-0014,10/14/2012 12:30:08 PM,70.803994,-158.458369,True,3,10.5,-1.75,70.475920,-158.216230,4,School of Fisheries and Ocean Sciences,,,,,,,,,
300234011884340,SFOS-MS-0014,10/14/2012 12:00:05 PM,70.803983,-158.458405,True,3,10.0,-1.75,70.464490,-158.300970,7,School of Fisheries and Ocean Sciences,,,,,,,,,
300234011884340,SFOS-MS-0014,10/14/2012 11:30:08 AM,70.803964,-158.458483,True,3,10.5,-1.75,70.490840,-158.337880,3,School of Fisheries and Ocean Sciences,,,,,,,,,
300234011884340,SFOS-MS-0014,10/14/2012 11:00:37 AM,70.803944,-158.458500,True,3,10.5,-1.75,71.520800,-162.494450,176,School of Fisheries and Ocean Sciences,,,,,,,,,
300234011884340,SFOS-MS-0014,10/14/2012 10:30:08 AM,70.803914,-158.458580,True,3,10.5,-1.90,70.475920,-158.216230,2,School of Fisheries and Ocean Sciences,,,,,,,,,
300234011884340,SFOS-MS-0014,10/14/2012 10:00:11 AM,70.803905,-158.458619,True,3,10.5,-1.85,70.464490,-158.300970,8,School of Fisheries and Ocean Sciences,,,,,,,,,
300234011884340,SFOS-MS-0014,10/14/2012 9:30:12 AM,70.803861,-158.458692,True,3,10.5,-1.85,70.483390,-158.277010,2,School of Fisheries and Ocean Sciences,,,,,,,,,
300234011884340,SFOS-MS-0014,10/14/2012 9:00:10 AM,70.803819,-158.458861,True,3,10.5,-1.80,70.464490,-158.300970,12,School of Fisheries and Ocean Sciences,,,,,,,,,
300234011884340,SFOS-MS-0014,10/14/2012 8:30:37 AM,70.803800,-158.458905,True,3,10.5,-1.75,70.457030,-158.240280,6,School of Fisheries and Ocean Sciences,,,,,,,,,
300234011884340,SFOS-MS-0014,10/14/2012 8:01:01 AM,70.803725,-158.459161,True,3,10.5,-1.75,70.464490,-158.300970,4,School of Fisheries and Ocean Sciences,,,,,,,,,
300234011884340,SFOS-MS-0014,10/14/2012 7:30:11 AM,70.803708,-158.459175,True,3,10.5,-1.80,70.475920,-158.216230,2,School of Fisheries and Ocean Sciences,,,,,,,,,
300234011884340,SFOS-MS-0014,10/14/2012 7:00:08 AM,70.803697,-158.459205,True,3,10.5,-1.75,70.464490,-158.300970,2,School of Fisheries and Ocean Sciences,,,,,,,,,
300234011884340,SFOS-MS-0014,10/14/2012 6:30:07 AM,70.803678,-158.459239,True,3,10.5,-1.80,70.475920,-158.216230,2,School of Fisheries and Ocean Sciences,,,,,,,,,
300234011884340,SFOS-MS-0014,10/14/2012 6:00:08 AM,70.803697,-158.459228,True,3,10.5,-1.70,70.471920,-158.361750,4,School of Fisheries and Ocean Sciences,,,,,,,,,
300234011884340,SFOS-MS-0014,10/14/2012 5:30:08 AM,70.803678,-158.459172,True,3,10.5,-1.75,70.475920,-158.216230,4,School of Fisheries and Ocean Sciences,,,,,,,,,
300234011884340,SFOS-MS-0014,10/14/2012 5:00:08 AM,70.803680,-158.459255,True,3,10.5,-1.65,71.285640,-166.405280,314,School of Fisheries and Ocean Sciences,,,,,,,,,
300234011884340,SFOS-MS-0014,10/14/2012 4:30:08 AM,70.803686,-158.459242,True,3,10.5,-1.65,70.464490,-158.300970,3,School of Fisheries and Ocean Sciences,,,,,,,,,
300234011884340,SFOS-MS-0014,10/14/2012 4:00:38 AM,70.803697,-158.459264,True,3,10.5,-2.10,70.464490,-158.300970,4,School of Fisheries and Ocean Sciences,,,,,,,,,
300234011884340,SFOS-MS-0014,10/14/2012 3:30:09 AM,70.803672,-158.459153,True,3,10.5,-1.95,70.475920,-158.216230,4,School of Fisheries and Ocean Sciences,,,,,,,,,
300234011884340,SFOS-MS-0014,10/14/2012 3:00:08 AM,70.803686,-158.459150,True,3,10.5,-1.75,70.490840,-158.337880,1,School of Fisheries and Ocean Sciences,,,,,,,,,
300234011884340,SFOS-MS-0014,10/14/2012 2:30:11 AM,70.803686,-158.459253,True,3,10.5,-1.60,70.490840,-158.337880,4,School of Fisheries and Ocean Sciences,,,,,,,,,
300234011884340,SFOS-MS-0014,10/14/2012 2:00:38 AM,70.803689,-158.459247,True,3,10.5,-1.55,70.475920,-158.216230,4,School of Fisheries and Ocean Sciences,,,,,,,,,
300234011884340,SFOS-MS-0014,10/14/2012 1:30:07 AM,70.803675,-158.459239,True,3,10.5,-1.55,70.457030,-158.240280,2,School of Fisheries and Ocean Sciences,,,,,,,,,
300234011884340,SFOS-MS-0014,10/14/2012 1:00:07 AM,70.803647,-158.459269,True,3,10.5,-1.50,70.475920,-158.216230,3,School of Fisheries and Ocean Sciences,,,,,,,,,
300234011884340,SFOS-MS-0014,10/14/2012 12:30:07 AM,70.803678,-158.459219,True,3,10.5,-1.50,71.103430,-164.144500,220,School of Fisheries and Ocean Sciences,,,,,,,,,
300234011884340,SFOS-MS-0014,10/14/2012 12:00:08 AM,70.803686,-158.459317,True,3,10.5,-1.55,70.490840,-158.337880,3,School of Fisheries and Ocean Sciences,,,,,,,,,
300234011884340,SFOS-MS-0014,10/13/2012 11:30:08 PM,70.803664,-158.459311,True,3,10.5,-1.65,70.483390,-158.277010,3,School of Fisheries and Ocean Sciences,,,,,,,,,
300234011884340,SFOS-MS-0014,10/13/2012 11:00:37 PM,70.803655,-158.459339,True,3,10.5,-1.60,70.490840,-158.337880,3,School of Fisheries and Ocean Sciences,,,,,,,,,
300234011884340,SFOS-MS-0014,10/13/2012 10:30:08 PM,70.803566,-158.459542,True,3,10.5,-1.65,70.464490,-158.300970,5,School of Fisheries and Ocean Sciences,,,,,,,,,
300234011884340,SFOS-MS-0014,10/13/2012 10:00:08 PM,70.803516,-158.459792,True,3,10.5,-1.65,70.490460,-158.277010,10,School of Fisheries and Ocean Sciences,,,,,,,,,
300234011884340,SFOS-MS-0014,10/13/2012 9:30:08 PM,70.803500,-158.459830,True,3,10.5,-1.60,70.436840,-160.324000,91,School of Fisheries and Ocean Sciences,,,,,,,,,
300234011884340,SFOS-MS-0014,10/13/2012 9:00:08 PM,70.803480,-158.459942,True,3,10.5,-1.65,70.483390,-158.277010,4,School of Fisheries and Ocean Sciences,,,,,,,,,
300234011884340,SFOS-MS-0014,10/13/2012 8:30:07 PM,70.803480,-158.460044,True,3,10.5,-1.60,70.475920,-158.216230,1,School of Fisheries and Ocean Sciences,,,,,,,,,
300234011884340,SFOS-MS-0014,10/13/2012 8:00:38 PM,70.803450,-158.459964,True,3,10.5,-1.60,70.490840,-158.337880,5,School of Fisheries and Ocean Sciences,,,,,,,,,
300234011884340,SFOS-MS-0014,10/13/2012 7:30:07 PM,70.803450,-158.459953,True,3,10.5,-1.75,70.437130,-159.148900,73,School of Fisheries and Ocean Sciences,,,,,,,,,
300234011884340,SFOS-MS-0014,10/13/2012 7:00:08 PM,70.803469,-158.460125,True,3,10.5,-1.60,70.464490,-158.300970,2,School of Fisheries and Ocean Sciences,,,,,,,,,
300234011884340,SFOS-MS-0014,10/13/2012 6:30:12 PM,70.803486,-158.460080,True,3,10.5,-1.60,70.464490,-158.300970,2,School of Fisheries and Ocean Sciences,,,,,,,,,
300234011884340,SFOS-MS-0014,10/13/2012 6:00:08 PM,70.803422,-158.460055,True,3,10.5,-1.60,70.464490,-158.300970,3,School of Fisheries and Ocean Sciences,,,,,,,,,
300234011884340,SFOS-MS-0014,10/13/2012 5:30:37 PM,70.803419,-158.460028,True,3,10.5,-1.65,70.509350,-158.252960,6,School of Fisheries and Ocean Sciences,,,,,,,,,
300234011884340,SFOS-MS-0014,10/13/2012 5:00:09 PM,70.803433,-158.460039,True,3,10.5,-1.65,70.566060,-156.225000,131,School of Fisheries and Ocean Sciences,,,,,,,,,
300234011884340,SFOS-MS-0014,10/13/2012 4:30:08 PM,70.803411,-158.460028,True,3,10.5,-1.65,70.457030,-158.240280,4,School of Fisheries and Ocean Sciences,,,,,,,,,
300234011884340,SFOS-MS-0014,10/13/2012 4:00:10 PM,70.803408,-158.460030,True,3,10.5,-1.65,70.475920,-158.216230,3,School of Fisheries and Ocean Sciences,,,,,,,,,
300234011884340,SFOS-MS-0014,10/13/2012 3:30:08 PM,70.803414,-158.460005,True,3,10.5,-1.65,70.464490,-158.300970,2,School of Fisheries and Ocean Sciences,,,,,,,,,
300234011884340,SFOS-MS-0014,10/13/2012 3:00:07 PM,70.803416,-158.460055,True,3,10.5,-1.65,70.509350,-158.252960,8,School of Fisheries and Ocean Sciences,,,,,,,,,
300234011884340,SFOS-MS-0014,10/13/2012 2:30:37 PM,70.803403,-158.460036,True,3,10.5,-1.65,70.483390,-158.277010,4,School of Fisheries and Ocean Sciences,,,,,,,,,
300234011884340,SFOS-MS-0014,10/13/2012 2:00:07 PM,70.803403,-158.460036,True,3,10.5,-1.65,70.475920,-158.216230,4,School of Fisheries and Ocean Sciences,,,,,,,,,
300234011884340,SFOS-MS-0014,10/13/2012 1:30:07 PM,70.803414,-158.460042,True,3,11.0,-1.65,70.475920,-158.216230,3,School of Fisheries and Ocean Sciences,,,,,,,,,
300234011884340,SFOS-MS-0014,10/13/2012 1:00:08 PM,70.803414,-158.460086,True,3,11.0,-1.65,70.457030,-158.240280,3,School of Fisheries and Ocean Sciences,,,,,,,,,
300234011884340,SFOS-MS-0014,10/13/2012 12:30:08 PM,70.803403,-158.460033,True,3,11.0,-1.60,70.475920,-158.216230,1,School of Fisheries and Ocean Sciences,,,,,,,,,
300234011884340,SFOS-MS-0014,10/13/2012 12:00:37 PM,70.803419,-158.460033,True,3,11.0,-1.60,70.509350,-158.252960,7,School of Fisheries and Ocean Sciences,,,,,,,,,
300234011884340,SFOS-MS-0014,10/13/2012 11:30:11 AM,70.803403,-158.460480,True,3,11.0,-1.60,71.440220,-170.198290,449,School of Fisheries and Ocean Sciences,,,,,,,,,
300234011884340,SFOS-MS-0014,10/13/2012 11:00:08 AM,70.803455,-158.460069,True,3,11.0,-1.55,70.475920,-158.216230,5,School of Fisheries and Ocean Sciences,,,,,,,,,
300234011884340,SFOS-MS-0014,10/13/2012 10:30:08 AM,70.803436,-158.460019,True,3,11.0,-1.90,70.373350,-154.377700,176,School of Fisheries and Ocean Sciences,,,,,,,,,
300234011884340,SFOS-MS-0014,10/13/2012 10:00:08 AM,70.803405,-158.460064,True,3,11.0,-1.65,70.457030,-158.240280,2,School of Fisheries and Ocean Sciences,,,,,,,,,
300234011884340,SFOS-MS-0014,10/13/2012 9:30:07 AM,70.803400,-158.460036,True,3,11.0,-1.55,70.475920,-158.216230,2,School of Fisheries and Ocean Sciences,,,,,,,,,
300234011884340,SFOS-MS-0014,10/13/2012 9:00:07 AM,70.803403,-158.460108,True,3,11.0,-1.55,70.464490,-158.300970,2,School of Fisheries and Ocean Sciences,,,,,,,,,
300234011884340,SFOS-MS-0014,10/13/2012 8:30:13 AM,70.803430,-158.459986,True,3,11.0,-1.70,70.475920,-158.216230,3,School of Fisheries and Ocean Sciences,,,,,,,,,
300234011884340,SFOS-MS-0014,10/13/2012 8:00:37 AM,70.803414,-158.460064,True,3,11.0,-1.55,70.464490,-158.300970,5,School of Fisheries and Ocean Sciences,,,,,,,,,
300234011884340,SFOS-MS-0014,10/13/2012 7:30:08 AM,70.803408,-158.460033,True,3,11.0,-1.70,70.475920,-158.216230,4,School of Fisheries and Ocean Sciences,,,,,,,,,
300234011884340,SFOS-MS-0014,10/13/2012 7:00:08 AM,70.803411,-158.460025,True,3,11.0,-1.80,71.117380,-163.531940,212,School of Fisheries and Ocean Sciences,,,,,,,,,
300234011884340,SFOS-MS-0014,10/13/2012 6:30:08 AM,70.803397,-158.460030,False,3,11.0,-1.70,70.467960,-157.403880,88,School of Fisheries and Ocean Sciences,,,,,,,,,
300234011884340,SFOS-MS-0014,10/13/2012 6:00:08 AM,70.803414,-158.460022,True,3,11.0,-1.50,70.475920,-158.216230,2,School of Fisheries and Ocean Sciences,,,,,,,,,
300234011884340,SFOS-MS-0014,10/13/2012 5:30:08 AM,70.803408,-158.460061,False,3,11.0,-1.35,70.457030,-158.240280,2,School of Fisheries and Ocean Sciences,,,,,,,,,
300234011884340,SFOS-MS-0014,10/13/2012 5:00:38 AM,70.803405,-158.460019,False,3,11.0,-1.05,70.464490,-158.300970,3,School of Fisheries and Ocean Sciences,,,,,,,,,
300234011884340,SFOS-MS-0014,10/13/2012 4:30:07 AM,70.803416,-158.459969,False,3,11.0,-1.00,70.494800,-158.192090,6,School of Fisheries and Ocean Sciences,,,,,,,,,
300234011884340,SFOS-MS-0014,10/13/2012 4:00:07 AM,70.803416,-158.459989,False,3,11.0,-1.30,70.490840,-158.337880,3,School of Fisheries and Ocean Sciences,,,,,,,,,
300234011884340,SFOS-MS-0014,10/13/2012 3:30:07 AM,70.803411,-158.459964,False,3,11.0,-1.20,70.471920,-158.361750,3,School of Fisheries and Ocean Sciences,,,,,,,,,
300234011884340,SFOS-MS-0014,10/13/2012 3:00:07 AM,70.803411,-158.459964,False,3,11.0,-1.15,70.475920,-158.216230,4,School of Fisheries and Ocean Sciences,,,,,,,,,
300234011884340,SFOS-MS-0014,10/13/2012 2:30:07 AM,70.803419,-158.459972,False,3,11.0,-1.15,70.596710,-161.318150,153,School of Fisheries and Ocean Sciences,,,,,,,,,
300234011884340,SFOS-MS-0014,10/13/2012 2:00:38 AM,70.803419,-158.460003,False,3,11.0,-1.40,70.475920,-158.216230,3,School of Fisheries and Ocean Sciences,,,,,,,,,
300234011884340,SFOS-MS-0014,10/13/2012 1:30:08 AM,70.803419,-158.460019,False,3,11.0,-1.40,70.457030,-158.240280,3,School of Fisheries and Ocean Sciences,,,,,,,,,
300234011884340,SFOS-MS-0014,10/13/2012 1:00:08 AM,70.803419,-158.460011,False,3,11.0,-1.25,70.494800,-158.192090,6,School of Fisheries and Ocean Sciences,,,,,,,,,
300234011884340,SFOS-MS-0014,10/13/2012 12:30:08 AM,70.803419,-158.459942,False,3,11.0,-1.25,70.596480,-161.109430,124,School of Fisheries and Ocean Sciences,,,,,,,,,
300234011884340,SFOS-MS-0014,10/13/2012 12:00:08 AM,70.803419,-158.459994,False,3,11.0,-1.15,70.457030,-158.240280,2,School of Fisheries and Ocean Sciences,,,,,,,,,
300234011884340,SFOS-MS-0014,10/12/2012 11:30:08 PM,70.803416,-158.460042,False,3,11.0,-1.05,70.475920,-158.216230,4,School of Fisheries and Ocean Sciences,,,,,,,,,
300234011884340,SFOS-MS-0014,10/12/2012 11:00:38 PM,70.803411,-158.460030,False,3,11.0,-1.05,70.502290,-158.252960,4,School of Fisheries and Ocean Sciences,,,,,,,,,
300234011884340,SFOS-MS-0014,10/12/2012 10:30:07 PM,70.803411,-158.460089,False,3,11.0,-1.15,70.475920,-158.216230,2,School of Fisheries and Ocean Sciences,,,,,,,,,
300234011884340,SFOS-MS-0014,10/12/2012 10:00:06 PM,70.803416,-158.460083,False,3,11.0,-1.20,70.475920,-158.216230,3,School of Fisheries and Ocean Sciences,,,,,,,,,
300234011884340,SFOS-MS-0014,10/12/2012 9:30:07 PM,70.803419,-158.460078,False,3,11.0,-1.15,70.520340,-157.414720,151,School of Fisheries and Ocean Sciences,,,,,,,,,
300234011884340,SFOS-MS-0014,10/12/2012 9:00:08 PM,70.803400,-158.460078,False,3,11.0,-1.25,70.475920,-158.216230,4,School of Fisheries and Ocean Sciences,,,,,,,,,
300234011884340,SFOS-MS-0014,10/12/2012 8:30:08 PM,70.803411,-158.460044,False,3,11.0,-1.45,70.509350,-158.252960,6,School of Fisheries and Ocean Sciences,,,,,,,,,
300234011884340,SFOS-MS-0014,10/12/2012 8:00:37 PM,70.803419,-158.460030,False,3,11.0,-1.35,70.494800,-158.192090,3,School of Fisheries and Ocean Sciences,,,,,,,,,
300234011884340,SFOS-MS-0014,10/12/2012 7:30:11 PM,70.803430,-158.460042,False,3,11.0,-1.25,70.509350,-158.252960,4,School of Fisheries and Ocean Sciences,,,,,,,,,
300234011884340,SFOS-MS-0014,10/12/2012 7:00:08 PM,70.803428,-158.460025,False,3,11.0,-1.35,70.483390,-158.277010,3,School of Fisheries and Ocean Sciences,,,,,,,,,
300234011884340,SFOS-MS-0014,10/12/2012 6:30:08 PM,70.803416,-158.460005,False,3,11.0,-1.40,70.494800,-158.192090,5,School of Fisheries and Ocean Sciences,,,,,,,,,
300234011884340,SFOS-MS-0014,10/12/2012 6:00:08 PM,70.803411,-158.460039,False,3,11.0,-1.55,70.457030,-158.240280,4,School of Fisheries and Ocean Sciences,,,,,,,,,
300234011884340,SFOS-MS-0014,10/12/2012 5:30:37 PM,70.803408,-158.460025,False,3,11.0,-1.80,70.464490,-158.300970,2,School of Fisheries and Ocean Sciences,,,,,,,,,
300234011884340,SFOS-MS-0014,10/12/2012 5:00:11 PM,70.803403,-158.459975,False,3,11.0,-1.65,70.460390,-158.446310,5,School of Fisheries and Ocean Sciences,,,,,,,,,
300234011884340,SFOS-MS-0014,10/12/2012 4:30:06 PM,70.803414,-158.460019,False,3,11.0,-1.65,70.475920,-158.216230,2,School of Fisheries and Ocean Sciences,,,,,,,,,
300234011884340,SFOS-MS-0014,10/12/2012 4:00:07 PM,70.803414,-158.460017,False,3,11.0,-1.55,72.585340,-140.135550,682,School of Fisheries and Ocean Sciences,,,,,,,,,
300234011884340,SFOS-MS-0014,10/12/2012 3:30:07 PM,70.803411,-158.460039,False,3,11.0,-1.70,70.464490,-158.300970,2,School of Fisheries and Ocean Sciences,,,,,,,,,
300234011884340,SFOS-MS-0014,10/12/2012 3:00:10 PM,70.803416,-158.460033,False,3,11.0,-1.60,70.475920,-158.216230,4,School of Fisheries and Ocean Sciences,,,,,,,,,
300234011884340,SFOS-MS-0014,10/12/2012 2:30:37 PM,70.803422,-158.460044,False,3,11.0,-1.50,70.475920,-158.216230,4,School of Fisheries and Ocean Sciences,,,,,,,,,
300234011884340,SFOS-MS-0014,10/12/2012 2:00:08 PM,70.803411,-158.460044,False,3,11.0,-1.50,70.464490,-158.300970,3,School of Fisheries and Ocean Sciences,,,,,,,,,
300234011884340,SFOS-MS-0014,10/12/2012 1:30:08 PM,70.803419,-158.460008,False,3,11.0,-1.40,70.464490,-158.300970,3,School of Fisheries and Ocean Sciences,,,,,,,,,
300234011884340,SFOS-MS-0014,10/12/2012 1:00:08 PM,70.803414,-158.460000,False,3,11.0,-1.55,70.483390,-158.277010,3,School of Fisheries and Ocean Sciences,,,,,,,,,
300234011884340,SFOS-MS-0014,10/12/2012 12:30:08 PM,70.803408,-158.459989,False,3,11.0,-1.70,70.475920,-158.216230,1,School of Fisheries and Ocean Sciences,,,,,,,,,
300234011884340,SFOS-MS-0014,10/12/2012 12:00:37 PM,70.803408,-158.459992,False,3,11.0,-1.55,70.457030,-158.240280,2,School of Fisheries and Ocean Sciences,,,,,,,,,
300234011884340,SFOS-MS-0014,10/12/2012 11:30:07 AM,70.803400,-158.460017,False,3,11.0,-1.70,70.390800,-164.469700,250,School of Fisheries and Ocean Sciences,,,,,,,,,
300234011884340,SFOS-MS-0014,10/12/2012 11:00:07 AM,70.803400,-158.460030,False,3,11.0,-1.60,70.464490,-158.300970,3,School of Fisheries and Ocean Sciences,,,,,,,,,
300234011884340,SFOS-MS-0014,10/12/2012 10:30:07 AM,70.803411,-158.460025,False,3,11.0,-1.90,70.464490,-158.300970,10,School of Fisheries and Ocean Sciences,,,,,,,,,
300234011884340,SFOS-MS-0014,10/12/2012 10:00:23 AM,70.803414,-158.460036,True,3,11.0,-1.75,70.509350,-158.252960,9,School of Fisheries and Ocean Sciences,,,,,,,,,
300234011884340,SFOS-MS-0014,10/12/2012 9:30:37 AM,70.803408,-158.460019,True,3,11.0,-1.75,70.509350,-158.252960,9,School of Fisheries and Ocean Sciences,,,,,,,,,
300234011884340,SFOS-MS-0014,10/12/2012 9:00:08 AM,70.803403,-158.460005,True,3,11.0,-1.60,70.464490,-158.300970,2,School of Fisheries and Ocean Sciences,,,,,,,,,
300234011884340,SFOS-MS-0014,10/12/2012 8:30:14 AM,70.803414,-158.460005,True,3,11.0,-1.35,70.437900,-155.285090,129,School of Fisheries and Ocean Sciences,,,,,,,,,